Location: Aulagny
(45.1643°N, 4.3096°E)
Time: 10:19:26
(UTC+00:00)

COSMO-SKYMED 1 - Pass Details

Date: 21 October 2019
Orbit: 621 x 623 km, 97.9° (Epoch: 18 November)

Event Time Altitude Azimuth Distance (km) Brightness Sun altitude
Rises 18:26:24 0° 6° (N) 2,914 6.0 -18.0°
Reaches altitude 10° 18:28:41 10° 360° (N) 2,002 5.2 -18.4°
Maximum altitude 18:32:46 42° 290° (WNW) 900 3.9 -19.1°
Drops below altitude 10° 18:36:51 10° 220° (SW) 1,987 5.6 -19.8°
Sets 18:39:06 0° 213° (SSW) 2,888 6.4 -20.2°
